Погода в Новомихайловке

Россия / Республика Хакасия     53°15′10″N   91°34′03″E
темп.,
°C
ветер,
м/с
пор.,
м/с
влажн.,
%
обл.,
%
осадки,
мм/ч
давл.,
гПа
погр.,
м
18 августа, чт
чт1801:00+8зюз226919 0.3 101321
04:00+5ююз11815 0.0 101310
07:00+7зюз1271100 0.0 101369
10:00+12з4563100 0.3 1014695
13:00+16зюз6745100 0.3 10131929
16:00+19з563181 0.0 10112667
19:00+17сз233311 0.0 1011202
22:00+10в225937 0.0 101210
19 августа, пт
пт1901:00+7юв117452 0.0 101210
04:00+6ююз1178100 0.0 101210
07:00+8сз1168100 0.0 101264
10:00+13з3352100 0.0 1012714
13:00+10юз101071100 0.2 1013850
16:00+10зюз698064 1.8 1014812
19:00+12зюз68636 1.8 10131208
22:00+6з22875 0.0 101417
20 августа, сб
сб2001:00+4юз22885 0.0 101514
04:00+4зюз358927 0.0 101693
07:00+8зюз4873100 0.1 1017520
10:00+8зюз5885100 0.4 1019372
13:00+10юз5674100 0.8 1019601
16:00+15юз445199 0.0 10181309
19:00+14юз345458 0.0 1018992
22:00+10юз2270100 0.0 102038
21 августа, вс
вс2101:00+10юз2270100 0.0 102034
04:00+9юз2269100 0.0 101932
07:00+9юз1266100 0.0 102080
10:00+12зюз1155100 0.0 1020332
13:00+16св214496 0.0 1018830
16:00+19св223651 0.0 10161558
19:00+18св34425 0.0 1016129
22:00+10вюв11725 0.0 101710
22 августа, пн
пн2201:00+8ююз117858 0.0 101810
04:00+9юз2272100 0.0 101815
07:00+11зюз126190 0.0 101982
10:00+18з664283 0.0 10191291
13:00+20зсз563996 0.0 10192307
16:00+18з1344100 0.1 1020731
19:00+15св256957 0.3 1021230
22:00+12св248861 0.2 1024146